Tracking 31027 objects as of 19-Jul-2025
HD Live streaming from Space Station
objects crossing your sky now

ARIANE 42P DEB

Track ARIANE 42P DEB now!
10-day predictions


NORAD ID: 44508
Int'l Code: 1992-052F
Perigee: 1,103.2 km
Apogee: 1,659.7 km
Inclination: 66.0 °
Period: 113.2 minutes
Semi major axis: 7752 km
RCS: Unknown
Launch date: August 10, 1992
Source: France (FR)
Launch site: FRENCH GUIANA (FRGUI)

Note: This is SATELLITE DEBRIS
Your satellite tracking list
THORAD DELTA 1 DEB
Track 1 satellite(s)




NASA's NSSDC Master Catalog

Two Line Element Set (TLE):
1 44508U 92052F   25198.82784375 -.00001864  00000-0 -68327-2 0  9997
2 44508  66.0268 344.0893 0358911  76.0287 288.0355 12.71865563 60628
Source of the keplerian elements: AFSPC